FW2487 Weather Reports


Display with metric or nautical units.
time (UTC)temp
F
wind
direction
speed
MPH
gust
MPH
rain 1hr
in
rain 24hr
in
rain mn
in
humidity
%
barometer
mb
20260906000031 60 220 2.0 7.0 0.00 0.01 0.00 86 1017.3
20260905233027 60 190 3.0 5.0 0.00 0.01 0.00 83 1017.4
20260905231529 60 227 2.0 4.0 0.00 0.01 0.00 79 1017.3
20260905224530 60 197 3.0 9.0 0.00 0.01 0.00 80 1017.2
20260905223031 62 236 4.0 12.0 0.00 0.01 0.00 73 1017.2
20260905221531 63 233 3.0 6.0 0.00 0.01 0.00 70 1017.0
20260905220032 65 203 1.0 4.0 0.00 0.01 0.00 70 1016.9
20260905214607 67 134 1.0 4.0 0.00 0.01 0.00 70 1016.9
20260905213105 64 113 0.0 4.0 0.00 0.01 0.00 74 1017.1
20260905211529 63 150 1.0 4.0 0.00 0.01 0.00 73 1017.3
20260905210029 62 292 0.0 2.0 0.00 0.01 0.00 71 1017.4
20260905204528 63 79 1.0 6.0 0.00 0.01 0.00 70 1017.5
20260905203031 62 214 2.0 5.0 0.00 0.01 0.00 73 1017.5
20260905201531 61 183 3.0 7.0 0.00 0.01 0.00 75 1017.6
20260905194531 61 268 1.0 4.0 0.00 0.01 0.00 76 1017.8
20260905191531 60 253 2.0 6.0 0.00 0.01 0.00 77 1017.9
20260905190029 60 289 1.0 3.0 0.00 0.01 0.00 79 1018.0
20260905184607 60 314 1.0 3.0 0.00 0.01 0.00 76 1018.1
20260905183031 62 16 2.0 7.0 0.00 0.01 0.00 77 1018.2
20260905181531 60 328 2.0 7.0 0.00 0.01 0.00 81 1018.3
20260905180031 58 291 1.0 5.0 0.00 0.01 0.00 84 1018.4
20260905173030 56 8 0.0 2.0 0.00 0.01 0.00 92 1018.4
20260905171530 54 45 0.0 2.0 0.00 0.01 0.00 94 1018.3
20260905170030 54 45 0.0 2.0 0.00 0.01 0.00 95 1018.3
20260905164530 53 45 0.0 2.0 0.00 0.01 0.00 95 1018.3
20260905161533 52 45 0.0 1.0 0.00 0.01 0.00 95 1018.3
20260905160030 51 45 0.0 2.0 0.00 0.01 0.00 95 1018.2
20260905153031 50 49 2.0 3.0 0.00 0.01 0.00 95 1018.1
20260905151529 49 157 0.0 0.0 0.00 0.01 0.00 95 1018.1
20260905144530 48 157 0.0 2.0 0.00 0.01 0.00 100 1018.0
20260905143030 47 157 2.0 3.0 0.00 0.01 0.00 100 1017.9
20260905141532 46 157 0.0 2.0 0.00 0.01 0.00 100 1017.8
20260905140031 45 157 0.0 0.0 0.00 0.01 0.00 94 1017.7
20260905133032 45 157 0.0 1.0 0.00 0.01 0.00 100 1017.5
20260905130031 47 182 1.0 3.0 0.00 0.01 0.00 100 1017.4
20260905124533 48 157 0.0 2.0 0.00 0.01 0.00 100 1017.5
20260905123030 48 157 0.0 1.0 0.00 0.01 0.00 100 1017.5
20260905121554 49 143 1.0 3.0 0.00 0.01 0.00 100 1017.5
20260905120029 48 126 2.0 3.0 0.00 0.01 0.00 100 1017.5
20260905114532 49 177 0.0 3.0 0.00 0.01 0.00 100 1017.3
20260905113030 49 274 1.0 3.0 0.00 0.01 0.00 100 1017.2
20260905111608 49 92 0.0 2.0 0.00 0.01 0.00 100 1017.2
20260905110104 49 157 0.0 2.0 0.00 0.01 0.00 100 1017.2
20260905104605 49 35 0.0 3.0 0.00 0.01 0.00 100 1017.3
20260905103032 50 31 0.0 3.0 0.00 0.01 0.00 100 1017.2
20260905101530 50 224 0.0 3.0 0.00 0.01 0.00 100 1017.2
20260905100148 50 225 0.0 1.0 0.00 0.01 0.00 100 1017.2
20260905094530 50 225 0.0 0.0 0.00 0.01 0.00 100 1017.3
20260905093147 50 225 0.0 0.0 0.00 0.01 0.00 100 1017.3
20260905083030 50 225 0.0 0.0 0.00 0.01 0.00 100 1017.1
20260905081531 50 225 0.0 0.0 0.00 0.01 0.00 100 1017.0
20260905080028 50 225 0.0 1.0 0.00 0.01 0.00 100 1016.9
20260905074530 51 148 0.0 1.0 0.00 0.01 0.00 100 1016.8
20260905073030 51 88 0.0 2.0 0.01 0.01 0.00 100 1016.7
20260905071604 51 67 0.0 1.0 0.01 0.01 0.00 100 1016.6
20260905070030 51 127 1.0 3.0 0.01 0.01 0.00 100 1016.5
20260905064529 52 171 1.0 3.0 0.01 0.01 0.00 100 1016.4
20260905061531 52 45 1.0 3.0 0.00 0.00 0.00 100 1016.3
20260905060031 53 124 0.0 3.0 0.00 0.00 0.00 100 1016.5
20260905054531 53 157 1.0 3.0 0.00 0.00 0.00 100 1016.6
20260905053031 53 147 2.0 4.0 0.00 0.00 0.00 100 1016.4
20260905050107 53 202 0.0 2.0 0.00 0.00 0.00 100 1016.3
20260905044526 53 191 1.0 2.0 0.00 0.00 0.00 100 1016.2
20260905043030 53 157 0.0 1.0 0.00 0.00 0.00 100 1016.1
20260905041530 53 157 0.0 2.0 0.00 0.00 0.00 100 1016.1
20260905040104 53 157 0.0 2.0 0.00 0.00 0.00 89 1016.0
20260905033030 53 134 3.0 4.0 0.00 0.00 0.00 100 1015.6
20260905030032 56 129 0.0 2.0 0.00 0.00 0.00 82 1015.5
20260905024531 57 67 0.0 3.0 0.00 0.00 0.00 78 1015.4
20260905023031 58 63 2.0 4.0 0.00 0.00 0.00 75 1015.6
20260905021603 60 28 4.0 7.0 0.00 0.00 0.00 71 1015.4
20260905013108 63 280 0.0 2.0 0.00 0.00 0.00 72 1014.8
20260905011530 63 337 0.0 1.0 0.00 0.00 0.00 72 1014.9
20260905010030 61 7 2.0 4.0 0.00 0.00 0.00 72 1014.9
20260905004606 61 315 0.0 0.0 0.00 0.00 0.00 72 1014.7
20260905003032 61 312 0.0 3.0 0.00 0.00 0.00 71 1014.6
20260905001532 61 311 2.0 5.0 0.00 0.00 0.00 71 1014.6